Portada
METAR-TAF:

METAR-TAF

Aeroports :

Remada, Tunísia

latitud: 32-19N, longitud: 010-24E, altitud: 300 m

Observació

L'informe es va fer fa 39 minuts, a les 02:00 UTC
Vent 3 kt del Est, variant entre Nord-Est i Sud/Sud-Est
Temperatura 25°C
Humitat 74%
Pressió 1015 hPa

METAR: DTTD 160200Z AUTO 10003KT 040V150 NCD 25/20 Q1015

Hora: 03:39 (02:39 UTC)


TAF: manca

Observacions i pronòstics meteorològics de més de 4000 aeroports (METAR i TAF).

Les estacions disponibles són els punts grocs i vermells al mapa.

Posi el ratolí al punt desitjat per veure el nom de l'estació.

Feu clic per veure les observacions i els pronòstics meteorològics.

Per canviar el mapa: feu clic els botons verds amb una creu de color negre per apropar; al botó verd amb un guió per allunyar la imatge; o en les fletxes verdes per a mapes adjacents.


METAR-TAF: